NOZ370 ENCN-EHAM

Flight info

Callsign NOZ370
Flight time N/A
Altitude 32000
Route LANTI M604 DANKO P850 GOLUM N866 UPGAS DCT TIPAN DCT LARDI/N0424F250 L74 TOPPA
Aircraft B738/M-SDE2E3FGHIRWXY/LB1

Departure

Time 2026-05-07 06:57
Airport Kristiansand Airport (ENCN)

Arrival

Time N/A
Airport Amsterdam Airport Schiphol (EHAM)
Time Latitude Longitude Altitude Speed Heading
2026-05-07 06:40 58.20317 8.07635 52 ft 0 kts 79°
2026-05-07 06:54 58.20317 8.07636 52 ft 1 kts 79°
2026-05-07 06:54 58.20310 8.07654 52 ft 3 kts 138°
2026-05-07 06:54 58.20278 8.07688 52 ft 7 kts 178°
2026-05-07 06:55 58.20220 8.07634 52 ft 12 kts 211°
2026-05-07 06:55 58.20138 8.07538 51 ft 16 kts 211°
2026-05-07 06:55 58.20034 8.07414 49 ft 18 kts 212°
2026-05-07 06:55 58.19916 8.07367 49 ft 18 kts 162°
2026-05-07 06:56 58.19801 8.07440 49 ft 17 kts 162°
2026-05-07 06:56 58.19707 8.07553 50 ft 17 kts 98°
2026-05-07 06:56 58.19790 8.07701 50 ft 21 kts 35°
2026-05-07 06:56 58.20095 8.08109 50 ft 95 kts 35°
2026-05-07 06:57 58.20850 8.09101 123 ft 161 kts 35°
2026-05-07 06:57 58.21842 8.10416 757 ft 190 kts 36°
2026-05-07 06:57 58.22983 8.11931 1530 ft 205 kts 36°
2026-05-07 06:57 58.24171 8.13512 2296 ft 220 kts 36°
2026-05-07 06:58 58.25454 8.15222 2788 ft 231 kts 36°
2026-05-07 06:58 58.26770 8.16978 3320 ft 237 kts 35°
2026-05-07 06:58 58.28133 8.18802 3923 ft 241 kts 37°
2026-05-07 06:58 58.29127 8.21043 4492 ft 244 kts 65°
2026-05-07 06:59 58.29407 8.24194 5065 ft 247 kts 98°
2026-05-07 06:59 58.28802 8.27231 5651 ft 248 kts 121°
2026-05-07 06:59 58.27840 8.29963 6275 ft 249 kts 126°
2026-05-07 06:59 58.26739 8.32523 6833 ft 252 kts 141°
2026-05-07 07:00 58.25167 8.33953 7344 ft 254 kts 171°
2026-05-07 07:00 58.23427 8.33703 7872 ft 253 kts 202°
2026-05-07 07:00 58.21919 8.32006 8441 ft 252 kts 219°
2026-05-07 07:00 58.20546 8.29919 8974 ft 255 kts 221°
2026-05-07 07:01 58.19186 8.27789 9500 ft 258 kts 221°
2026-05-07 07:01 58.17793 8.25611 10107 ft 260 kts 221°
2026-05-07 07:01 58.16382 8.23422 10765 ft 262 kts 221°
2026-05-07 07:01 58.14974 8.21253 11606 ft 260 kts 221°
2026-05-07 07:02 58.13568 8.19100 12367 ft 260 kts 221°
2026-05-07 07:02 58.12150 8.16934 13092 ft 263 kts 222°
2026-05-07 07:02 58.10720 8.14756 13835 ft 265 kts 222°
2026-05-07 07:02 58.09281 8.12567 14496 ft 267 kts 222°
2026-05-07 07:03 58.07828 8.10361 15130 ft 269 kts 222°
2026-05-07 07:03 58.06379 8.08167 15743 ft 272 kts 222°
2026-05-07 07:03 58.04891 8.05917 16371 ft 275 kts 221°
2026-05-07 07:03 58.03263 8.03900 16798 ft 289 kts 212°
2026-05-07 07:04 58.01401 8.02143 16955 ft 310 kts 209°
2026-05-07 07:04 57.99381 8.00372 17117 ft 329 kts 208°
2026-05-07 07:04 57.97249 7.98512 17271 ft 347 kts 208°
2026-05-07 07:04 57.94999 7.96527 17412 ft 365 kts 208°
2026-05-07 07:05 57.92657 7.94436 17543 ft 381 kts 208°
2026-05-07 07:05 57.90246 7.92266 17749 ft 394 kts 208°
2026-05-07 07:05 57.87755 7.90017 18207 ft 400 kts 208°
2026-05-07 07:05 57.85238 7.87742 18738 ft 402 kts 208°
2026-05-07 07:06 57.82711 7.85457 19270 ft 404 kts 209°
2026-05-07 07:06 57.80172 7.83160 19768 ft 406 kts 209°
2026-05-07 07:06 57.77611 7.80847 20255 ft 409 kts 209°
2026-05-07 07:06 57.75039 7.78523 20738 ft 411 kts 210°
2026-05-07 07:07 57.72578 7.75916 21193 ft 411 kts 216°
2026-05-07 07:07 57.70186 7.72962 21667 ft 413 kts 217°
2026-05-07 07:07 57.67781 7.69958 22121 ft 416 kts 217°
2026-05-07 07:07 57.65349 7.67009 22573 ft 419 kts 216°
2026-05-07 07:08 57.62948 7.63912 22981 ft 418 kts 224°
2026-05-07 07:08 57.61061 7.59814 23388 ft 414 kts 239°
2026-05-07 07:08 57.59526 7.55276 23818 ft 415 kts 240°
2026-05-07 07:08 57.57996 7.50672 24154 ft 418 kts 240°
2026-05-07 07:09 57.56472 7.46122 24472 ft 420 kts 240°
2026-05-07 07:09 57.54904 7.41507 24794 ft 423 kts 240°
2026-05-07 07:09 57.53311 7.36870 25116 ft 425 kts 240°
2026-05-07 07:09 57.51705 7.32223 25428 ft 427 kts 240°
2026-05-07 07:10 57.50088 7.27560 25746 ft 429 kts 240°
2026-05-07 07:10 57.48278 7.23082 26017 ft 437 kts 229°
2026-05-07 07:10 57.45878 7.19615 26303 ft 446 kts 215°
2026-05-07 07:10 57.43200 7.16670 26615 ft 448 kts 214°
2026-05-07 07:11 57.40514 7.13790 26865 ft 451 kts 214°
2026-05-07 07:11 57.37777 7.10860 27113 ft 454 kts 214°
2026-05-07 07:11 57.35040 7.07908 27383 ft 455 kts 214°
2026-05-07 07:11 57.32300 7.04929 27650 ft 457 kts 214°
2026-05-07 07:12 57.29564 7.01940 27984 ft 457 kts 214°
2026-05-07 07:12 57.26823 6.98940 28388 ft 456 kts 214°
2026-05-07 07:12 57.24094 6.95953 28788 ft 455 kts 214°
2026-05-07 07:12 57.21370 6.92975 29149 ft 455 kts 214°
2026-05-07 07:13 57.18680 6.90039 29479 ft 455 kts 214°
2026-05-07 07:13 57.15947 6.87062 29838 ft 455 kts 214°
2026-05-07 07:13 57.13216 6.84094 30197 ft 454 kts 214°
2026-05-07 07:13 57.10490 6.81137 30487 ft 454 kts 214°
2026-05-07 07:14 57.07765 6.78186 30760 ft 454 kts 214°
2026-05-07 07:14 57.05038 6.75236 31043 ft 454 kts 214°
2026-05-07 07:14 57.02310 6.72291 31339 ft 454 kts 214°
2026-05-07 07:14 56.99621 6.69396 31601 ft 454 kts 214°
2026-05-07 07:15 56.96833 6.66620 31863 ft 456 kts 211°
2026-05-07 07:15 56.93995 6.63995 32145 ft 456 kts 211°
2026-05-07 07:15 56.91153 6.61365 32423 ft 456 kts 211°
2026-05-07 07:15 56.88329 6.58712 32680 ft 456 kts 211°
2026-05-07 07:16 56.85541 6.56077 32929 ft 456 kts 211°
2026-05-07 07:16 56.82726 6.53411 33203 ft 455 kts 211°
2026-05-07 07:16 56.79914 6.50750 33455 ft 455 kts 211°
2026-05-07 07:16 56.77102 6.48094 33702 ft 455 kts 211°
2026-05-07 07:17 56.74281 6.45434 33946 ft 455 kts 211°
2026-05-07 07:17 56.71459 6.42778 34179 ft 455 kts 211°
2026-05-07 07:17 56.68645 6.40136 34379 ft 455 kts 211°
2026-05-07 07:17 56.65827 6.37496 34592 ft 455 kts 211°
2026-05-07 07:18 56.63047 6.34895 34812 ft 454 kts 211°
2026-05-07 07:18 56.60236 6.32271 35014 ft 454 kts 211°
2026-05-07 07:18 56.57422 6.29647 35223 ft 453 kts 211°
2026-05-07 07:18 56.54616 6.27035 35414 ft 453 kts 210°
2026-05-07 07:19 56.51805 6.24424 35613 ft 453 kts 210°
2026-05-07 07:19 56.49002 6.21824 35817 ft 452 kts 210°
2026-05-07 07:19 56.46206 6.19234 36012 ft 452 kts 210°
2026-05-07 07:19 56.43402 6.16641 36084 ft 454 kts 210°
2026-05-07 07:20 56.37798 6.11472 36088 ft 453 kts 210°
2026-05-07 07:20 56.32196 6.06324 36091 ft 450 kts 210°
2026-05-07 07:21 56.26622 6.01218 36085 ft 448 kts 210°
2026-05-07 07:21 56.21063 5.96142 36089 ft 447 kts 210°
2026-05-07 07:22 56.15521 5.91096 36094 ft 447 kts 209°
2026-05-07 07:22 56.09976 5.86065 36094 ft 449 kts 209°
2026-05-07 07:23 56.04385 5.81008 36091 ft 451 kts 209°
2026-05-07 07:23 55.98758 5.75937 36092 ft 453 kts 209°
2026-05-07 07:24 55.93103 5.70856 36089 ft 455 kts 209°
2026-05-07 07:24 55.87465 5.65808 36091 ft 457 kts 208°
2026-05-07 07:25 55.78917 5.58185 36089 ft 458 kts 208°
2026-05-07 07:26 55.73205 5.53113 36087 ft 459 kts 208°
2026-05-07 07:26 55.67524 5.48084 36092 ft 458 kts 208°
2026-05-07 07:27 55.61809 5.43041 36086 ft 458 kts 208°
2026-05-07 07:27 55.56127 5.38044 36087 ft 457 kts 208°
2026-05-07 07:28 55.50429 5.33046 36087 ft 456 kts 208°
2026-05-07 07:28 55.44776 5.27945 36082 ft 455 kts 213°
2026-05-07 07:29 55.39761 5.21239 36086 ft 452 kts 220°
2026-05-07 07:29 55.34886 5.14327 36097 ft 452 kts 220°
2026-05-07 07:30 55.29937 5.07464 36090 ft 452 kts 219°
2026-05-07 07:30 55.24992 5.00700 36089 ft 453 kts 217°
2026-05-07 07:31 55.19511 4.95061 36089 ft 455 kts 209°
2026-05-07 07:31 55.13921 4.89933 36090 ft 456 kts 209°
2026-05-07 07:32 55.08307 4.84751 36082 ft 457 kts 209°
2026-05-07 07:32 55.02695 4.79518 36082 ft 458 kts 209°
2026-05-07 07:33 54.97066 4.74262 36081 ft 458 kts 209°
2026-05-07 07:33 54.91463 4.69047 36078 ft 459 kts 209°
2026-05-07 07:34 54.85814 4.63809 36079 ft 460 kts 209°
2026-05-07 07:34 54.80173 4.58596 36078 ft 460 kts 209°
2026-05-07 07:35 54.74511 4.53380 36079 ft 460 kts 209°
2026-05-07 07:35 54.68882 4.48210 36078 ft 460 kts 209°
2026-05-07 07:36 54.63214 4.43020 36079 ft 460 kts 209°
2026-05-07 07:36 54.57552 4.37853 36080 ft 460 kts 209°
2026-05-07 07:37 54.51879 4.32694 36082 ft 460 kts 208°
2026-05-07 07:37 54.46219 4.27560 36084 ft 459 kts 208°
2026-05-07 07:38 54.40595 4.22473 36084 ft 459 kts 208°
2026-05-07 07:38 54.35887 4.18226 36085 ft 459 kts 208°
2026-05-07 07:39 54.30222 4.13130 36083 ft 459 kts 208°
2026-05-07 07:39 54.24550 4.08044 36088 ft 459 kts 208°
2026-05-07 07:40 54.18915 4.03007 36087 ft 459 kts 208°
2026-05-07 07:40 54.13234 3.97945 36089 ft 460 kts 208°
2026-05-07 07:41 54.07552 3.92898 36089 ft 460 kts 208°
2026-05-07 07:41 54.01905 3.87897 36087 ft 460 kts 208°
2026-05-07 07:42 53.96216 3.82874 36088 ft 461 kts 208°
2026-05-07 07:42 53.90515 3.77856 35861 ft 465 kts 208°
2026-05-07 07:42 53.87613 3.75307 35274 ft 469 kts 207°
2026-05-07 07:43 53.84716 3.72768 34657 ft 468 kts 207°
2026-05-07 07:43 53.81809 3.70223 33992 ft 469 kts 207°
2026-05-07 07:43 53.78901 3.67682 33208 ft 471 kts 207°
2026-05-07 07:43 53.75983 3.65136 32487 ft 471 kts 207°
2026-05-07 07:44 53.73070 3.62597 31774 ft 472 kts 207°
2026-05-07 07:44 53.70189 3.60089 31058 ft 472 kts 207°
2026-05-07 07:44 53.67257 3.57541 30307 ft 473 kts 207°
2026-05-07 07:44 53.64313 3.55037 29422 ft 474 kts 204°
2026-05-07 07:45 53.61183 3.53287 28795 ft 470 kts 192°
2026-05-07 07:45 53.57972 3.52501 28171 ft 465 kts 183°
2026-05-07 07:45 53.54764 3.52641 27641 ft 459 kts 172°
2026-05-07 07:45 53.51623 3.53412 27071 ft 453 kts 171°
2026-05-07 07:46 53.48519 3.54211 26503 ft 449 kts 171°
2026-05-07 07:46 53.45475 3.54950 25963 ft 445 kts 172°
2026-05-07 07:46 53.42417 3.55645 25427 ft 441 kts 172°
2026-05-07 07:46 53.39384 3.56317 24926 ft 437 kts 172°
2026-05-07 07:47 53.36401 3.57098 24523 ft 430 kts 170°
2026-05-07 07:47 53.33458 3.57969 24130 ft 431 kts 169°
2026-05-07 07:47 53.30491 3.58878 23734 ft 435 kts 169°
2026-05-07 07:47 53.27499 3.59793 23234 ft 435 kts 169°
2026-05-07 07:48 53.24543 3.60684 22783 ft 429 kts 170°
2026-05-07 07:48 53.21617 3.61552 22379 ft 423 kts 170°
2026-05-07 07:48 53.18729 3.62398 21967 ft 419 kts 170°
2026-05-07 07:48 53.15869 3.63230 21563 ft 416 kts 171°
2026-05-07 07:49 53.13058 3.64044 21176 ft 413 kts 171°
2026-05-07 07:49 53.10231 3.64861 20774 ft 411 kts 171°
2026-05-07 07:49 53.07413 3.65675 20381 ft 410 kts 171°
2026-05-07 07:49 53.04602 3.66486 19995 ft 409 kts 171°
2026-05-07 07:50 53.01804 3.67293 19599 ft 408 kts 171°
2026-05-07 07:50 52.99015 3.68096 19222 ft 407 kts 171°
2026-05-07 07:50 52.96221 3.68899 18833 ft 405 kts 171°
2026-05-07 07:50 52.93439 3.69697 18447 ft 404 kts 171°
2026-05-07 07:51 52.90674 3.70491 18015 ft 402 kts 171°
2026-05-07 07:51 52.87923 3.71280 17596 ft 400 kts 171°
2026-05-07 07:51 52.85191 3.72061 17199 ft 397 kts 171°
2026-05-07 07:51 52.82516 3.72826 16823 ft 394 kts 171°
2026-05-07 07:52 52.79817 3.73597 16445 ft 391 kts 171°
2026-05-07 07:52 52.77145 3.74359 16073 ft 389 kts 171°
2026-05-07 07:52 52.74480 3.75030 15697 ft 386 kts 174°
2026-05-07 07:52 52.71805 3.75460 15328 ft 384 kts 176°
2026-05-07 07:53 52.69147 3.75815 14968 ft 383 kts 176°
2026-05-07 07:53 52.66525 3.76183 14607 ft 382 kts 176°
2026-05-07 07:53 52.63884 3.76583 14245 ft 381 kts 175°
2026-05-07 07:53 52.61248 3.77025 13880 ft 380 kts 172°
2026-05-07 07:54 52.58758 3.78428 13453 ft 378 kts 150°
2026-05-07 07:54 52.56753 3.81150 13093 ft 371 kts 131°
2026-05-07 07:54 52.55391 3.84649 12734 ft 364 kts 113°
2026-05-07 07:54 52.54474 3.88486 12405 ft 358 kts 110°
2026-05-07 07:55 52.53598 3.92284 12055 ft 352 kts 110°
2026-05-07 07:55 52.52719 3.96007 11714 ft 347 kts 111°
2026-05-07 07:55 52.51836 3.99685 11383 ft 342 kts 111°
2026-05-07 07:55 52.50958 4.03297 11052 ft 337 kts 111°
2026-05-07 07:56 52.50103 4.06802 10726 ft 333 kts 111°
2026-05-07 07:56 52.49240 4.10331 10373 ft 331 kts 111°
2026-05-07 07:56 52.48388 4.13812 10047 ft 327 kts 111°
2026-05-07 07:56 52.47876 4.15905 10001 ft 319 kts 111°